Location: Mentone
(34.5413°N, 85.5351°W)
Time: 01:42:39
(UTC-05:00)

Centaur AC-72 - Visible Passes

Search period start: 25 April 2017 00:00
Search period end: 05 May 2017 00:00
Orbit: 1110 x 35246 km, 19.4° (Epoch: 23 April)

Date Brightness Start Highest point End Pass type
(mag) Time Alt. Az. Time Alt. Az. Time Alt. Az.
27 Apr 6.3 00:59:43 10° SW 04:12:26 14° SW 10:03:15 10° ESE visible
27 Apr 7.7 21:21:25 10° SSW 02:57:41 31° SSW 07:11:23 10° ESE visible
28 Apr 7.0 20:29:11 10° SE 03:06:09 36° SSE 04:13:10 10° ESE visible
01 May 6.4 00:41:39 10° SW 04:18:54 14° SW 09:47:27 10° ESE visible
01 May 7.7 21:06:02 10° SSW 03:05:44 32° SSW 06:55:36 10° ESE visible
02 May 6.8 18:04:52 10° SSW 02:49:50 36° SSE 03:57:19 10° ESE visible
